User: anonymous   Login
Location: ??
(35.5052°N, 139.7262°E)
Time: 19:52:54
(UTC+00:00)
Language:

COSMOS 2251 DEB - Orbit

View from above orbital plane
View from above orbital plane
View from above satellite
View from above satellite

Ground track
Ground track

The orbit data is extracted from the following two-line orbital elements,

1 34571U 93036VH  22015.05670089  .00001176  00000-0  50454-3 0  9992
2 34571  74.0505 268.5339 0102518 293.0179  66.0179 14.23111277668465
Epoch (UTC): 15 January 2022 01:21:38
Eccentricity: 0.0102518
inclination: 74.0505°
perigee height: 741 km
apogee height: 888 km
right ascension of ascending node: 268.5339°
argument of perigee: 293.0179°
revolutions per day: 14.23111277
mean anomaly at epoch: 66.0179°
orbit number at epoch: 66846

The dashed part of the orbit path shows where the satellite is in the earth's shadow,  

DLR